Regional Weather Roundup
Issued by NWS

Home | Current Version | Previous Version | Graphics & Text | Print | Product List | Glossary On
Versions: 1 2 3 4 5 6 7 8 9 10 11 12 13 14 15 16 17 18 19 20 21 22 23 24 25 26 27 28 29 30 31 32 33 34 35 36 37 38 39 40 41 42 43 44 45 46 47 48 49 50
000
ASUS43 KLSX 271007
RWRMO

WEATHER SUMMARY FOR MISSOURI
NATIONAL WEATHER SERVICE SPRINGFIELD MO
500 AM CDT WED JUL 27 2016

NOTE: "FAIR" INDICATES FEW OR NO CLOUDS BELOW 12,000 FEET WITH NO
       SIGNIFICANT WEATHER AND/OR OBSTRUCTIONS TO VISIBILITY.
       CURRENT SKY AND/OR WEATHER CONDITIONS ARE NOT AVAILABLE FOR
       CHILLICOTHE AND FARMINGTON.

MOZ001>031-035>038-043-044-053-054-271100-
...NORTHERN AND WESTERN MISSOURI...

CITY           SKY/WX    TMP DP  RH WIND       PRES   REMARKS
KANSAS CTY INT PTCLDY    71  66  84 NE3       30.01R
KANSAS C DTWN  CLEAR     74  67  78 N3        30.00R
LEE`S SUMMIT   PTCLDY    73  68  84 E3        30.01S
ST JOSEPH      PTCLDY    65  62  90 CALM      30.01S
CHILLICOTHE      N/A     68  65  90 CALM      30.02R
KIRKSVILLE     PTCLDY    64  62  93 N5        30.02S

$$
MOZ066>068-077>081-088>096-101>105-271100-
...SOUTHWEST MISSOURI...

CITY           SKY/WX    TMP DP  RH WIND       PRES   REMARKS
SPRINGFIELD    LGT RAIN  74  71  91 S3        30.00R
JOPLIN         CLOUDY    72  71  97 NE5       30.00R FOG
BRANSON        FOG       73  73 100 E3        30.02R VSB 3/4

$$
MOZ032>034-039>042-045>050-055>058-069>072-271100-
...CENTRAL MISSOURI...

CITY           SKY/WX    TMP DP  RH WIND       PRES   REMARKS
COLUMBIA       PTCLDY    72  71  97 S3        30.00S FOG
JEFFERSON CITY PTCLDY    72  71  97 CALM      29.99R
ROLLA          CLOUDY    72  71  97 CALM      30.01R
SEDALIA        CLOUDY    73  70  90 CALM      30.01R
WHITEMAN AFB   MOCLDY    71  71 100 CALM      29.99R
OSAGE BEACH    MOCLDY    73  71  93 CALM      30.02R

$$
MOZ051-052-059>065-271100-
...EAST CENTRAL MISSOURI...

CITY           SKY/WX    TMP DP  RH WIND       PRES   REMARKS
ST LOUIS INTL  CLOUDY    79  74  84 S6        30.00R
SPIRIT OF STL  MOCLDY    75  74  96 CALM      29.98R
ST CHARLES     CLOUDY    76  76 100 CALM      29.98R

$$
MOZ072>076-082>087-097>100-106>115-271100-
...SOUTH CENTRAL AND SOUTHEAST MISSOURI...

CITY           SKY/WX    TMP DP  RH WIND       PRES   REMARKS
CAPE GIRARDEAU CLOUDY    73  72  96 CALM      29.97R FOG
FARMINGTON     FOG       72  70  94 CALM      30.01S VSB 1
POPLAR BLUFF   PTCLDY    73  72  96 N5        29.97R
WEST PLAINS    PTCLDY    71  68  90 CALM      30.04R

$$



USA.gov is the U.S. government's official web portal to all federal, state and local government web resources and services.